OpenBCM V1.08-3-g9b42 (Linux)

Packet Radio Mailbox

OK0NBR

[Sao_Jose_dos_Campo]

 Login: GUEST





  
I0OJJ  > KEPS     13.11.25 22:03l 308 Lines 14709 Bytes #256 (0) @ AMSAT
BID : ORB25318.1
Read: GUEST
Subj: 2Line Orbital Elements 25318.AMSAT
Path: OK0NBR<IW0QNL<IZ3LSV<IK6IHL<IK7NXU<HB9ON<DK0WUE<PI8ZTM<CX2SA<EA2RCF<
      I0OJJ
Sent: 251114/0021z @:I0OJJ.ITA.EU [Rome] obcm1.08-11-2-gbfe9
From: I0OJJ @ I0OJJ.ITA.EU (Gustavo)
To:   KEPS @ AMSAT
X-Info: This message was generated automatically


QST de W1STR

AMSAT Orbital Elements for Amateur Satellites in TLE Format
From Orbital Analysis Office
New England Sci-Tech STEM Education Center
Natick MA November 14, 2025
To all radio amateurs


These element sets describe the orbits of various satellites 
in use by the amateur radio community. For details see:
www.amsat.org/keplerian-elements-formats/

A daily update of element sets is available at:
www.amsat.org/tle/daily-bulletin.txt
or without bulletin text:
www.amsat.org/tle/dailytle.txt


AO-07
1 07530U 74089B   25317.47308957 -.00000022  00000-0  15153-3 0  9997
2 07530 101.9978 323.4317 0012178 181.8912 346.9419 12.53693307333480
UO-11
1 14781U 84021B   25317.85070209  .00004900  00000-0  51343-3 0  9997
2 14781  97.7768 281.3379 0007895 164.1823 195.9643 14.90002355225054
AO-27
1 22825U 93061C   25317.13965494  .00000364  00000-0  15567-3 0  9997
2 22825  98.7187  19.3310 0008685  21.7279 338.4270 14.30860816676107
FO-29
1 24278U 96046B   25317.49457953  .00000053  00000-0  92873-4 0  9993
2 24278  98.5485 190.5507 0349013 296.0256  60.5336 13.53260117443992
GO-32
1 25397U 98043D   25317.48450434  .00000277  00000-0  13977-3 0  9996
2 25397  98.9897 300.0250 0002244 104.7082 255.4345 14.24365053420627
ISS
1 25544U 98067A   25317.38640451  .00019086  00000-0  34614-3 0  9994
2 25544  51.6331 287.7803 0004165  65.1573 294.9849 15.49618030538300
NO-44
1 26931U 01043C   25317.81792917  .00000666  00000-0  27957-3 0  9992
2 26931  67.0507  81.2689 0007250 271.5145  88.5127 14.31831267259611
SO-50
1 27607U 02058C   25317.72760969  .00004902  00000-0  60458-3 0  9992
2 27607  64.5537  75.2534 0070532 301.9567  57.4693 14.82230329232519
CO-55
1 27844U 03031E   25317.43354970  .00000906  00000-0  41234-3 0  9997
2 27844  98.6774 323.7137 0010710  92.1425 268.0980 14.24143224160968
CO-57
1 27848U 03031J   25317.45617082  .00000753  00000-0  35043-3 0  9990
2 27848  98.6805 323.6211 0010567 107.9780 252.2551 14.23456656160681
RS-22
1 27939U 03042A   25317.84705660  .00005332  00000-0  84020-3 0  9993
2 27939  98.3371 131.2816 0010476 228.0086 239.2616 14.72853785183842
CO-58
1 28895U 05043F   25317.34440000  .00005558  00000-0  89755-3 0  9997
2 28895  98.2708 103.9320 0014668 166.1232 194.0380 14.71725287 69994
CO-65
1 32785U 08021C   25317.88402764  .00014385  00000-0  97465-3 0  9998
2 32785  97.8049 290.5797 0010871  46.8754 313.3380 15.06533347952749
CO-66
1 32791U 08021J   25317.43357979  .00038221  00000-0  15789-2 0  9996
2 32791  97.7433 301.6053 0004174  27.1263 333.0191 15.23895616954332
RS-30
1 32953U 08025A   25317.81878481  .00000066  00000-0  39950-3 0  9991
2 32953  82.4992 129.4122 0019846  62.9997 297.3106 12.43170678792936
SRMSAT
1 37841U 11058D   25317.63013015  .00000686  00000-0  22894-3 0  9993
2 37841  19.9724 284.1336 0011660 353.4263 162.8570 14.11497482727325
ZACUBE-1
1 39417U 13066B   25317.81859905  .00012846  00000-0  10553-2 0  9990
2 39417  97.7988 274.3356 0040866 244.9362 114.7616 14.98652305648443
Delfi-N3xt
1 39428U 13066N   25317.49101159  .00019342  00000-0  18340-2 0  9997
2 39428  97.8308 233.5842 0079064 201.7926 157.9923 14.91230796642430
GOMX-1
1 39430U 13066Q   25317.80690238  .00008700  00000-0  13238-2 0  9993
2 39430  97.6625 166.7420 0131970  49.2212 312.0357 14.68407306638291
LO-74
1 39440U 13066AA  25317.82902434  .00012575  00000-0  12158-2 0  9995
2 39440  97.8656 261.5550 0061144  22.2435 338.1414 14.91514687644869
AO-73
1 39444U 13066AE  25317.34620633  .00019534  00000-0  13460-2 0  9993
2 39444  97.8021 280.2875 0037870 214.2299 145.6486 15.05293249647145
DTUSAT-2
1 40030U 14033W   25317.40678191  .00020806  00000-0  12446-2 0  9997
2 40030  98.0738 297.2420 0006419 245.8560 114.1998 15.11063601620050
EO-80
1 40032U 14033Y   25317.88230661  .00018566  00000-0  11086-2 0  9996
2 40032  98.0620 297.1783 0007678 173.1750 186.9584 15.11145803620104
LILACSAT-2
1 40908U 15049K   25317.83368891  .00040572  00000-0  90057-3 0  9996
2 40908  97.4956 342.3470 0006979 326.1170  33.9631 15.43581678562441
IO-86
1 40931U 15052B   25151.18580175  .00001241  00000-0  78118-4 0  9996
2 40931   6.0006  24.0987 0012733 338.8432  21.1169 14.78805930523159
Horyu-4
1 41340U 16012D   25317.81447772  .00073651  00000-0  13783-2 0  9996
2 41340  30.9932 148.0720 0005165 302.5962  57.4187 15.47357859537063
Lapan A3
1 41603U 16040E   25317.87871670  .00011736  00000-0  39027-3 0  9999
2 41603  97.1433 316.4926 0012642  70.7487 289.5121 15.31239704521845
CAS-2T
1 41847U 16066G   25317.80003844  .00003320  00000-0  47356-3 0  9994
2 41847  98.4066  30.8225 0345155  62.7364 300.8541 14.44038095473700
TechnoSat
1 42829U 17042E   25317.70626231  .00009470  00000-0  70256-3 0  9997
2 42829  97.4045 119.1760 0020611 107.3460 253.0023 15.03099498454312
AO-91
1 43017U 17073E   25317.39020005  .00025058  00000-0  11953-2 0  9991
2 43017  97.4972 184.2673 0163495 351.7508   8.1037 15.07947254432814
S-Net D
1 43186U 18014G   25317.27863894  .00017243  00000-0  95529-3 0  9991
2 43186  97.5475 218.6158 0010310  52.0355 308.1806 15.13829519426065
S-Net B
1 43187U 18014H   25317.68283126  .00015864  00000-0  87950-3 0  9997
2 43187  97.5482 218.9953 0010892  46.2883 313.9248 15.13819053426129
S-Net A
1 43188U 18014J   25317.67506071  .00016056  00000-0  88930-3 0  9997
2 43188  97.5488 219.1598 0010851  47.3476 312.8668 15.13850238426123
S-Net C
1 43189U 18014K   25317.68570169  .00016226  00000-0  89924-3 0  9991
2 43189  97.5507 219.2108 0012290  40.3502 319.8638 15.13813279424672
Ten-Koh
1 43677U 18084G   25317.45948177  .00008516  00000-0  66201-3 0  9999
2 43677  98.0683 135.9117 0009277 108.8930 251.3300 15.01526951383771
PO-101
1 43678U 18084H   25317.82143201  .00008527  00000-0  70362-3 0  9991
2 43678  98.1063 140.1234 0007646 117.3504 242.8497 14.99244739383930
QO-100
1 43700U 18090A   25317.81626655  .00000144  00000-0  00000+0 0  9997
2 43700   0.0182 275.0775 0002347 355.0755 102.7013  1.00270824 25517
MinXSS-2
1 43758U 18099A   25317.65279860  .00051534  00000-0  16285-2 0  9997
2 43758  97.4840  24.6612 0009282 326.0652  33.9994 15.32596755380968
AO-95
1 43770U 18099N   25317.59051363  .00026357  00000-0  11888-2 0  9999
2 43770  97.4719  14.1036 0010425  33.2939 326.8950 15.20942552380386
SNUSat 2
1 43782U 18099AA  25317.12522345  .00021410  00000-0  10674-2 0  9991
2 43782  97.4404   9.0486 0010528 338.3151  21.7635 15.17511572380214
SnugLite
1 43784U 18099AC  25317.12449788  .00024691  00000-0  11047-2 0  9991
2 43784  97.4213   8.9950 0002678 357.9780   2.1444 15.21278590380407
ITASat 1
1 43786U 18099AE  25317.58496387  .00019033  00000-0  10056-2 0  9993
2 43786  97.4373   8.5110 0014272  29.1010 331.1015 15.15454252380219
EAGLET 1
1 43790U 18099AJ  25317.10114736  .00013389  00000-0  81013-3 0  9991
2 43790  97.4568   7.4023 0011964  18.6973 341.4694 15.10692254379684
ESEO
1 43792U 18099AL  25317.39632808  .00005328  00000-0  39621-3 0  9991
2 43792  97.4299 358.7732 0011961 355.2346   4.8764 15.03324601379371
JO-97
1 43803U 18099AX  25317.11457602  .00033152  00000-0  13050-2 0  9994
2 43803  97.4468  15.0493 0005790 326.0576  34.0291 15.25541185380591
Suomi 100
1 43804U 18099AY  25317.15088435  .00026175  00000-0  11361-2 0  9993
2 43804  97.4536  13.8590 0010399 327.9723  32.0880 15.22259623380487
ISAT
1 43879U 18111D   25317.56903150  .00068789  00000-0  17664-2 0  9994
2 43879  97.5886 236.1686 0008358  26.2893 333.8774 15.39028115377751
UWE-4
1 43880U 18111E   25317.20285450  .00054704  00000-0  17326-2 0  9990
2 43880  97.5824 232.9569 0012030  30.9378 329.2569 15.32478887377558
Sparrow
1 43881U 18111F   25317.33377588  .00072223  00000-0  17397-2 0  9993
2 43881  97.6067 239.5094 0008606  56.2656 303.9409 15.40961244377835
Prox-1
1 44339U 19036A   25317.73963280  .00025998  00000-0  30010-2 0  9997
2 44339  23.9954 106.6726 0007672  68.3380 291.7935 14.84133496341350
Taurus 1
1 44530U 19059C   25317.88714510  .00027801  00000-0  47841-2 0  9996
2 44530  98.6217 105.1678 0008839 263.3404  96.6794 14.68500887327009
Duchifat 3
1 44854U 19089C   25317.58541288  .00622676  00000-0  30879-2 0  9999
2 44854  36.9311  61.7091 0008260  67.1768 292.9871 15.79347063327493
TO-108
1 44881U 19093C   25317.81443012  .00004519  00000-0  52190-3 0  9997
2 44881  97.7789  30.0893 0015098  77.0219 283.2681 14.86011588319427
FloripaSat 1
1 44885U 19093G   25317.84484816  .00023848  00000-0  18780-2 0  9993
2 44885  97.8065  45.9091 0012119  63.1659 297.0802 15.00735330320312
RS-44
1 44909U 19096E   25317.85269566  .00000039  00000-0  12002-3 0  9996
2 44909  82.5182 122.8061 0216587 287.9246  69.8348 12.79745311274800
SALSAT
1 46495U 20068K   25317.48238541  .00019557  00000-0  76994-3 0  9992
2 46495  97.8774 303.1958 0010255 348.9445  11.1564 15.25622557282427
CSS (TIANHE-1)
1 48274U 21035A   25317.82251235  .00040347  00000-0  46539-3 0  9990
2 48274  41.4650 192.2060 0003947  21.8267 338.2739 15.61158145259510
TUBIN
1 48900U 21059X   25317.80628213  .00412383  00000-0  14531-2 0  9993
2 48900  97.6675 142.1565 0001854 349.3154  10.8077 15.88134127244704
CUTE
1 49263U 21088D   25317.66951366  .00094394  00000-0  13264-2 0  9990
2 49263  97.4381  39.2667 0005841  29.4542 330.7041 15.56361327228778
TeikyoSat 4
1 49396U 21102B   25317.54911882  .00006081  00000-0  39375-3 0  9998
2 49396  97.3943 350.2427 0011063 322.0937  37.9512 15.08453758220207
